Location: Unspecified
(0.0000°N, 0.0000°E)
Time: 12:48:25
(UTC+00:00)

SR - Pass Details

Date: 13 December 2018
Orbit: 584 x 872 km, 66.7° (Epoch: 25 March)

Event Time Altitude Azimuth Distance (km) Brightness Sun altitude
Rises 02:15:51 0° 235° (SW) 3,437 - -48.5°
Reaches altitude 10° 02:19:32 10° 258° (WSW) 2,513 - -47.8°
Maximum altitude 02:22:35 15° 290° (WNW) 2,204 - -47.1°
Drops below altitude 10° 02:25:39 10° 322° (NW) 2,502 - -46.5°
Sets 02:29:20 0° 346° (NNW) 3,411 - -45.8°
